Location: ?�kov
(49.4404°N, 15.1201°E)
Time: 09:00:35
(UTC+00:00)

STARLINK-1301 - Pass Details

Date: 07 June 2020
Orbit: 548 x 551 km, 53.0° (Epoch: 15 July)

Event Time Altitude Azimuth Distance (km) Brightness Sun altitude
Exits shadow 01:42:51 - 265° (W) 2,454 6.5 -9.1°
Reaches altitude 10° 01:44:30 10° 269° (W) 1,801 5.9 -8.9°
Maximum altitude 01:48:32 57° 349° (N) 640 4.2 -8.5°
Drops below altitude 10° 01:52:33 10° 69° (ENE) 1,795 7.3 -8.1°
Sets 01:54:48 0° 73° (ENE) 2,685 8.2 -7.8°
